Probability
0 0 0 0 0 0 3 3 0 3 3 3 0 0 0 0 0 0 0 0 0 0 0 0 0 0 0 0 0 0 0 0 0 0 0 0 0 0 0 0 0 0 0
0 0 0 0 0 0 0 3 3 0 3 3 3 0 0 0 0 0 0 0 0 0 0 0 0 0 0 0 0 0 0 0 0 0 0 0 0 0 0 0 0 0 0
0 0 0 0 0 0 3 3 3 3 0 3 3 3 3 0 0 0 0 0 0 0 0 0 0 0 0 0 0 0 0 0 0 0 0 0 0 0 0 0 0 0 0
0 0 0 0 0 0 0 3 3 3 0 0 3 3 3 3 3 3 0 0 0 0 0 0 0 0 0 0 0 0 0 0 0 0 0 0 0 0 0 0 0 0 0
0 0 0 0 0 0 0 3 3 3 3 3 0 3 3 3 3 3 3 0 0 0 0 0 0 0 0 0 0 0 0 0 0 0 0 0 0 0 0 0 0 0 0
0 0 0 0 0 0 0 3 3 3 3 3 3 0 3 3 3 3 3 3 0 0 0 0 0 0 0 0 0 0 0 0 0 0 0 0 0 0 0 0 0 0 0
0 0 0 0 0 0 0 0 0 0 0 0 0 0 0 3 3 0 0 3 3 0 0 0 0 0 0 0 0 0 0 0 0 0 0 0 0 0 0 0 0 0 0
0 0 0 0 0 0 0 0 0 0 0 0 0 0 0 0 0 0 0 3 3 3 0 0 0 0 0 0 0 0 0 0 0 0 0 0 0 0 0 0 0 0 0
0 0 0 0 0 0 0 0 0 0 0 0 0 0 0 0 0 0 0 3 3 3 3 0 0 0 0 0 0 0 0 0 0 0 0 0 0 0 0 0 0 0 0
0 0 0 0 0 0 0 0 0 0 0 0 0 0 0 0 0 0 0 3 3 3 3 0 0 0 0 0 0 0 0 0 0 0 0 0 0 0 0 0 0 0 0
0 0 0 0 0 0 0 0 0 0 0 0 3 0 0 0 0 0 0 0 3 3 3 3 0 0 0 0 0 0 0 0 0 0 0 0 0 0 0 0 0 0 0
0 0 0 0 0 0 0 0 0 0 0 0 0 0 0 0 0 0 0 0 0 3 3 3 0 0 0 0 0 0 0 0 0 0 0 0 0 0 0 0 0 0 0
0 0 0 0 0 0 0 0 0 0 0 0 0 0 0 0 0 0 0 0 0 0 3 3 0 0 0 0 0 0 0 0 0 0 0 0 0 0 0 0 0 0 0
0 0 0 0 0 0 0 0 0 0 0 0 0 0 0 0 0 0 0 0 0 0 0 0 0 0 0 0 0 0 0 0 0 0 0 0 0 0 0 0 0 0 0
0 0 0 0 0 0 0 0 0 0 0 0 0 0 0 0 0 0 0 0 0 0 0 0 0 0 0 0 0 0 0 0 0 0 0 0 0 0 0 0 0 0 0
0 0 0 0 0 0 0 0 0 0 0 0 0 0 0 0 0 0 0 0 0 0 0 0 0 0 0 0 0 0 0 0 0 0 0 0 0 0 0 0 0 0 0
0 0 0 0 0 0 0 0 0 0 0 0 0 0 0 0 0 0 0 0 0 0 0 0 0 0 0 0 0 0 0 0 0 0 0 0 0 0 0 0 0 0 0
0 0 0 0 0 0 0 0 0 0 0 0 0 0 0 0 0 0 0 0 0 0 0 0 0 0 0 0 0 0 0 0 0 0 0 0 0 0 0 0 0 0 0
0 0 0 0 0 0 0 0 0 0 0 0 0 0 0 0 0 0 0 0 0 0 0 0 0 0 0 0 0 0 0 0 0 0 0 0 0 0 0 0 0 0 0
0 0 0 0 0 0 0 0 0 0 0 0 0 0 0 0 0 0 0 0 0 0 0 0 0 0 0 0 0 0 0 0 0 0 0 0 0 0 0 0 0 0 0
0 0 0 0 0 0 0 0 0 0 0 0 0 0 0 0 0 0 0 0 0 0 0 0 0 0 0 0 0 0 0 0 0 0 0 0 0 0 0 0 0 0 0
0 0 0 0 0 0 0 0 0 0 0 0 0 0 0 0 0 0 0 0 0 0 0 0 0 0 0 0 0 0 0 0 0 0 0 0 0 0 0 0 0 0 0
0 0 0 0 0 0 0 0 0 0 0 0 0 0 0 0 0 0 0 0 0 0 0 0 0 0 0 0 0 0 0 0 0 0 0 0 0 0 0 0 0 0 0
0 0 0 0 0 0 0 0 0 0 0 0 0 0 0 0 0 0 0 0 0 0 0 0 0 0 0 0 0 0 0 0 0 0 0 0 0 0 0 0 0 0 0
0 0 0 0 0 0 0 0 0 0 0 0 0 0 0 0 0 0 0 0 0 0 0 0 0 0 0 0 0 0 0 0 0 0 0 0 0 0 0 0 0 0 0
0 0 0 0 0 0 0 0 0 0 0 0 0 0 0 0 0 0 0 0 0 0 0 0 0 0 0 0 0 0 0 0 0 0 0 0 0 0 0 0 0 0 0
Height
5796 5795 5795 5795 5794 5793 5793 5793 5793 5793 5793 5793 5794 5794 5794 5794 5795 5795 5795 5795 5795 5795 5795 5795 5795 5795 5795 5794 5794 5794 5794 5794 5794 5793 5793 5792 5791 5791 5790 5789 5788 5787 5786
5791 5790 5790 5790 5789 5788 5788 5787 5788 5788 5788 5788 5788 5788 5789 5789 5789 5789 5789 5789 5790 5790 5790 5790 5790 5789 5789 5789 5789 5789 5789 5789 5789 5788 5788 5787 5787 5786 5785 5785 5784 5783 5782
5786 5785 5785 5784 5784 5783 5782 5782 5782 5782 5782 5783 5783 5783 5783 5783 5783 5783 5783 5784 5784 5784 5784 5784 5784 5784 5784 5784 5784 5784 5784 5784 5784 5783 5783 5782 5782 5781 5780 5780 5779 5779 5778
5781 5780 5779 5778 5778 5777 5776 5776 5776 5776 5776 5776 5776 5776 5776 5776 5776 5777 5777 5777 5777 5777 5778 5778 5778 5778 5778 5778 5778 5778 5778 5778 5778 5778 5777 5777 5776 5776 5775 5775 5774 5774 5773
5775 5774 5773 5772 5771 5771 5770 5770 5770 5769 5769 5769 5769 5769 5769 5769 5769 5770 5770 5770 5770 5771 5771 5771 5771 5771 5771 5771 5771 5771 5771 5771 5771 5771 5771 5771 5770 5770 5769 5769 5769 5768 5767
5769 5768 5767 5766 5765 5765 5764 5764 5764 5763 5763 5762 5762 5762 5762 5762 5762 5762 5763 5763 5763 5763 5764 5764 5764 5764 5764 5764 5764 5764 5764 5764 5765 5764 5764 5764 5763 5763 5763 5762 5762 5762 5762
5763 5762 5761 5760 5759 5758 5758 5757 5757 5756 5756 5755 5755 5754 5754 5754 5755 5755 5755 5755 5755 5756 5756 5756 5756 5756 5756 5756 5756 5756 5757 5757 5757 5757 5757 5757 5756 5756 5755 5755 5755 5755 5755
5756 5755 5754 5753 5752 5752 5751 5750 5750 5749 5748 5748 5747 5747 5747 5747 5747 5746 5746 5746 5747 5747 5747 5748 5748 5748 5748 5748 5748 5748 5748 5748 5749 5749 5749 5748 5748 5748 5747 5747 5746 5747 5747
5749 5748 5747 5746 5745 5744 5744 5743 5742 5741 5741 5740 5740 5739 5739 5739 5738 5738 5738 5738 5738 5738 5738 5739 5739 5739 5739 5739 5739 5740 5740 5740 5739 5739 5739 5739 5739 5739 5738 5738 5738 5738 5738
5741 5740 5739 5738 5737 5736 5736 5735 5734 5734 5733 5732 5732 5731 5730 5730 5729 5729 5729 5729 5729 5729 5729 5730 5730 5730 5730 5729 5729 5730 5730 5730 5730 5730 5730 5730 5730 5729 5729 5729 5729 5729 5729
5733 5732 5731 5730 5729 5728 5728 5727 5726 5726 5725 5724 5723 5723 5722 5721 5721 5720 5720 5720 5720 5720 5720 5720 5720 5720 5720 5720 5720 5720 5721 5721 5720 5720 5720 5721 5720 5720 5720 5720 5720 5720 5720
5725 5724 5724 5722 5721 5720 5719 5718 5718 5717 5716 5715 5715 5714 5713 5713 5712 5711 5710 5710 5710 5710 5710 5710 5710 5710 5710 5710 5710 5710 5710 5710 5710 5711 5711 5711 5711 5711 5711 5711 5711 5710 5711
5717 5715 5714 5713 5712 5711 5710 5710 5709 5708 5708 5707 5706 5705 5704 5703 5703 5702 5701 5701 5701 5700 5700 5700 5700 5700 5700 5700 5700 5700 5700 5700 5700 5701 5701 5701 5701 5701 5701 5701 5701 5701 5701
5708 5706 5705 5704 5703 5702 5701 5700 5700 5699 5698 5698 5697 5696 5695 5695 5694 5693 5692 5692 5691 5691 5690 5690 5689 5689 5690 5690 5690 5690 5690 5690 5690 5691 5691 5691 5691 5691 5691 5691 5691 5691 5691
5699 5697 5696 5695 5694 5693 5692 5691 5690 5690 5689 5688 5687 5687 5686 5685 5685 5684 5683 5682 5682 5681 5681 5681 5680 5680 5679 5680 5680 5680 5680 5680 5679 5680 5680 5680 5680 5680 5681 5681 5681 5680 5680
5690 5688 5687 5686 5684 5683 5682 5681 5680 5680 5679 5678 5677 5677 5676 5676 5675 5674 5674 5673 5672 5672 5671 5671 5670 5670 5670 5669 5669 5669 5669 5669 5669 5669 5669 5670 5670 5670 5670 5669 5669 5669 5669
5681 5679 5678 5676 5675 5674 5672 5672 5671 5670 5669 5668 5668 5667 5666 5666 5665 5664 5663 5663 5663 5662 5662 5662 5661 5661 5660 5660 5659 5659 5659 5658 5658 5658 5658 5658 5658 5658 5658 5658 5658 5657 5657
5672 5670 5668 5667 5665 5663 5662 5661 5660 5660 5659 5658 5658 5657 5656 5656 5655 5654 5653 5653 5652 5652 5652 5651 5651 5651 5650 5650 5649 5649 5648 5648 5647 5647 5647 5647 5646 5646 5646 5646 5646 5646 5645
5662 5660 5658 5656 5654 5653 5651 5650 5650 5649 5648 5648 5647 5647 5646 5645 5645 5644 5643 5642 5642 5641 5641 5640 5640 5640 5639 5639 5638 5638 5637 5637 5636 5636 5635 5634 5634 5634 5634 5634 5633 5633 5633
5651 5649 5647 5645 5643 5642 5640 5639 5638 5638 5637 5637 5636 5636 5635 5634 5633 5632 5631 5631 5630 5630 5629 5629 5628 5628 5628 5627 5627 5626 5626 5625 5625 5624 5623 5623 5622 5621 5621 5621 5621 5621 5620
5641 5639 5636 5634 5632 5631 5629 5628 5627 5626 5626 5625 5625 5624 5623 5622 5622 5621 5620 5619 5618 5617 5617 5617 5616 5616 5615 5615 5615 5614 5614 5613 5613 5612 5611 5610 5610 5609 5608 5608 5608 5608 5608
5630 5628 5626 5623 5621 5620 5618 5617 5616 5615 5614 5613 5613 5612 5611 5610 5609 5608 5607 5606 5606 5605 5604 5604 5603 5603 5603 5603 5602 5602 5602 5601 5600 5600 5599 5598 5597 5596 5595 5595 5594 5594 5595
5620 5617 5615 5613 5611 5609 5607 5606 5604 5603 5602 5601 5600 5599 5598 5597 5596 5595 5594 5594 5593 5592 5591 5591 5590 5590 5590 5589 5589 5589 5589 5588 5587 5587 5586 5585 5584 5583 5583 5582 5582 5582 5582
5609 5607 5605 5602 5600 5598 5596 5595 5593 5592 5591 5589 5588 5587 5585 5584 5583 5582 5581 5580 5579 5579 5578 5577 5577 5577 5576 5576 5575 5575 5575 5574 5574 5573 5573 5572 5571 5570 5570 5569 5569 5569 5569
5599 5596 5594 5592 5589 5587 5585 5583 5582 5580 5579 5577 5576 5574 5573 5571 5570 5569 5568 5567 5567 5566 5565 5564 5563 5563 5563 5562 5562 5561 5561 5560 5559 5559 5559 5558 5558 5557 5556 5556 5556 5556 5556
5588 5585 5583 5581 5578 5576 5574 5572 5570 5568 5566 5565 5563 5562 5560 5559 5558 5557 5555 5554 5554 5553 5552 5551 5550 5549 5549 5548 5548 5547 5546 5546 5545 5545 5544 5544 5544 5543 5543 5543 5543 5543 5542
Wind_Speed
17 17 17 17 16 17 17 18 17 17 16 16 16 16 16 16 17 17 17 17 17 17 16 16 16 17 17 17 16 17 17 17 16 16 17 17 16 16 16 16 15 15 15
17 17 17 18 18 18 19 19 18 18 18 18 18 18 18 19 19 19 19 18 18 18 18 18 18 18 18 18 18 18 17 17 17 16 17 17 16 16 15 16 16 16 15
18 18 19 19 19 19 20 20 20 19 19 19 19 20 21 20 20 20 20 20 20 20 20 19 19 18 19 19 19 19 19 19 19 18 18 18 18 17 17 17 17 17 16
19 19 20 20 20 20 20 20 20 20 21 21 22 22 23 22 21 21 21 22 22 22 22 22 21 21 20 19 19 20 20 20 20 20 20 20 19 19 19 19 18 18 18
20 20 20 20 20 20 20 20 20 21 22 22 23 23 23 23 23 23 23 22 23 23 23 23 23 22 22 21 21 21 22 22 22 22 22 21 21 21 21 21 20 20 20
20 20 21 21 21 21 21 22 22 22 23 23 23 24 24 24 24 24 24 24 24 24 24 25 24 25 24 24 24 24 24 24 24 24 24 23 23 23 23 23 23 23 23
21 22 22 23 22 22 22 22 23 23 24 25 25 24 24 24 24 25 26 26 26 26 26 26 26 26 27 26 26 26 25 25 25 25 25 25 25 25 25 25 25 25 24
22 23 24 24 23 23 24 23 24 24 25 25 25 25 25 25 25 26 27 27 27 27 27 27 27 27 28 28 28 27 27 27 27 27 27 27 27 27 27 27 27 26 27
23 23 24 24 24 24 24 24 24 24 25 25 26 26 27 27 27 27 27 27 27 27 27 28 28 28 28 29 30 29 29 29 29 28 28 28 29 29 29 29 29 28 28
23 23 24 24 24 25 25 25 25 25 25 26 26 27 27 28 28 27 27 28 28 28 28 29 29 29 29 29 30 30 29 30 30 30 29 30 30 30 30 29 29 29 29
25 24 25 25 25 26 26 26 26 26 26 26 26 27 27 28 28 29 28 29 29 29 29 30 30 30 30 30 31 31 31 31 31 31 31 30 31 30 29 29 29 29 29
27 27 27 27 27 27 27 27 27 27 27 27 27 27 27 28 29 29 29 29 29 29 30 31 31 31 31 31 31 31 32 32 31 31 31 31 30 29 30 30 29 30 30
27 28 29 29 29 29 28 28 28 28 28 28 28 27 27 27 28 29 30 30 30 30 30 30 31 31 31 31 31 30 31 32 32 31 31 31 31 31 31 31 31 31 32
27 28 28 29 29 29 29 29 29 29 28 29 29 28 28 28 28 28 29 28 28 29 29 30 30 31 32 32 32 32 32 32 32 32 32 32 32 32 32 32 32 32 32
27 28 28 28 29 28 29 29 29 29 29 29 29 29 29 29 29 29 29 27 27 28 28 29 30 30 31 31 33 33 32 32 33 33 33 33 33 33 33 33 33 33 33
28 28 29 29 29 29 30 30 29 29 29 29 29 30 30 30 30 30 30 30 29 28 28 28 29 29 30 30 31 32 32 33 34 34 33 33 34 34 34 35 35 35 34
29 29 29 30 29 29 29 30 30 30 30 30 30 30 30 31 31 31 31 31 31 30 29 28 28 29 30 30 30 30 31 32 34 35 35 35 36 36 36 36 36 36 35
30 30 30 30 30 31 31 31 31 30 30 30 30 31 31 30 31 31 32 32 32 32 32 31 30 30 30 30 30 31 31 31 32 33 35 36 37 37 37 37 37 36 36
30 30 30 31 31 32 32 32 32 32 31 31 31 31 32 32 32 32 33 33 33 33 33 33 33 32 31 31 31 31 31 32 32 33 34 35 36 37 37 38 38 38 37
31 31 31 31 31 32 32 32 32 32 32 32 32 33 34 34 34 34 34 34 34 34 34 34 34 34 33 33 33 33 32 33 33 33 34 34 35 36 37 38 38 38 38
31 31 31 31 31 32 33 33 32 32 33 33 33 34 35 35 35 35 36 35 35 35 35 35 34 35 35 35 34 34 34 34 35 35 35 35 36 36 37 37 38 38 38
31 31 31 31 32 32 32 33 33 33 33 34 34 35 36 36 36 36 36 36 36 36 36 36 36 36 36 37 37 36 36 36 37 36 36 37 36 36 36 37 38 38 38
30 30 31 31 32 32 32 32 32 33 33 34 35 35 36 37 37 37 36 37 37 37 37 37 37 37 37 37 38 38 38 38 38 38 38 37 37 37 37 37 37 38 37
31 31 31 31 32 32 32 32 33 33 34 34 35 36 37 37 37 37 37 37 38 38 38 38 38 38 38 38 38 39 39 39 39 39 39 39 39 38 38 38 37 38 38
32 32 32 32 33 33 33 33 34 34 35 35 35 36 36 36 37 37 38 38 38 38 38 38 38 38 39 39 39 39 40 40 40 40 40 40 40 40 39 39 39 39 39
32 33 33 33 33 33 33 34 34 34 35 35 35 35 35 36 36 37 37 37 37 38 38 39 39 39 40 40 40 40 41 41 41 41 41 41 41 41 40 40 40 40 39
Wind_Direction
278 276 272 268 266 268 268 267 266 264 262 263 264 263 263 261 260 261 263 263 264 266 267 269 269 270 269 268 267 268 269 269 271 273 274 275 276 276 274 275 275 275 274
276 277 274 271 269 269 269 267 264 262 261 262 263 263 263 264 263 261 262 262 263 264 266 267 269 270 269 267 267 268 268 269 271 273 275 279 279 278 276 276 276 276 273
276 277 277 277 274 271 269 266 265 261 261 261 262 263 264 266 266 263 262 262 262 263 264 265 267 269 270 268 266 267 267 267 268 270 272 276 278 278 277 277 277 277 273
275 276 277 277 276 272 269 268 267 264 263 263 262 264 265 266 265 265 264 262 261 262 264 265 266 268 268 267 267 267 266 266 267 268 270 272 274 275 275 274 274 274 272
275 276 278 278 278 275 271 270 269 268 266 266 265 264 265 265 264 265 264 262 261 262 264 264 265 267 268 268 267 267 267 267 268 269 270 272 273 274 272 271 271 270 271
275 275 277 277 277 275 274 271 271 271 269 268 268 264 265 266 265 266 265 265 263 263 263 265 265 264 265 267 267 267 267 267 268 269 270 271 273 273 273 271 270 269 269
276 276 277 276 276 275 274 273 272 272 271 271 272 268 266 265 266 267 267 266 265 265 265 264 264 263 263 264 266 267 268 269 269 269 269 271 271 272 271 271 270 268 268
277 277 277 277 276 276 275 275 275 274 273 273 272 271 268 266 266 266 267 266 265 265 265 265 265 264 263 264 264 265 267 268 269 269 268 269 269 270 271 270 269 268 268
279 278 278 278 278 277 276 275 276 276 276 276 274 273 271 269 267 268 268 266 266 265 265 265 265 265 264 264 263 264 265 267 268 269 269 270 270 270 271 271 269 267 268
280 279 279 280 279 278 276 275 276 277 276 276 276 276 275 273 271 269 269 267 267 266 266 266 266 266 266 265 264 264 265 267 269 270 270 270 270 270 270 271 270 268 268
279 279 279 280 280 279 277 277 277 277 277 276 276 277 276 275 274 271 269 268 268 267 268 267 266 267 267 266 265 265 265 266 267 269 269 269 268 268 269 270 270 269 268
279 279 279 278 278 278 277 277 278 277 276 275 276 276 276 275 275 274 271 270 269 269 268 268 267 266 266 266 266 266 266 266 266 267 268 267 266 266 268 269 270 270 269
280 279 278 278 278 278 277 277 277 277 276 275 276 276 276 276 275 274 276 272 270 269 269 268 267 266 265 265 266 266 267 267 266 266 266 266 265 265 267 269 269 270 270
281 281 279 278 278 278 277 277 277 276 276 276 275 275 275 276 277 276 277 274 271 271 271 270 269 267 266 267 267 267 267 267 266 265 266 266 266 266 267 268 269 270 271
282 281 281 280 279 278 278 278 277 277 276 276 275 274 274 274 275 275 276 277 275 275 273 271 271 270 269 268 268 267 267 266 266 267 268 268 268 267 267 268 269 270 271
283 281 280 280 280 279 278 278 277 277 277 276 275 274 273 273 274 275 275 276 276 276 275 274 272 272 271 271 270 268 267 267 266 267 268 268 269 270 269 269 269 269 270
283 281 281 280 281 280 279 278 277 277 277 275 274 273 274 273 274 275 274 274 275 274 273 273 274 274 274 273 273 272 270 269 268 267 268 269 269 269 270 270 271 271 270
283 282 281 280 280 280 279 278 277 277 276 275 273 273 273 273 274 275 275 274 273 273 273 273 273 274 273 273 273 273 272 272 271 270 270 269 269 268 269 270 270 270 271
284 284 283 281 280 279 278 277 277 275 275 274 273 273 273 273 274 275 275 274 274 273 273 273 272 272 271 272 273 274 274 273 273 273 272 271 270 269 269 269 269 268 269
285 285 284 283 281 280 279 278 277 275 274 273 273 273 273 274 275 276 276 276 275 274 272 272 272 271 270 271 272 274 274 275 275 275 273 272 272 271 270 269 268 268 269
285 285 286 285 283 282 280 279 278 276 274 274 274 275 274 275 274 274 274 275 275 274 273 272 272 271 270 270 272 273 273 274 274 274 274 273 273 273 271 269 268 267 268
286 286 286 285 284 282 281 280 279 277 276 275 275 275 275 276 276 275 274 274 273 273 273 273 271 270 270 270 270 271 272 272 272 273 273 273 273 273 272 271 269 268 267
287 288 287 286 285 283 282 281 280 279 278 277 276 275 276 276 276 275 275 275 275 274 274 274 273 271 271 270 271 270 270 271 271 272 272 272 272 272 271 270 269 268 267
287 287 287 287 286 285 284 283 282 280 279 278 278 277 277 276 275 275 275 275 276 276 275 274 273 273 272 272 271 271 271 270 270 270 271 271 272 273 272 270 270 270 269
288 287 287 287 287 287 286 285 283 282 281 280 279 278 278 277 275 275 275 275 276 276 276 275 273 273 273 273 272 271 270 271 271 270 270 271 271 271 272 271 270 270 270
289 288 288 288 288 287 287 285 284 283 282 280 279 279 278 277 276 276 276 275 276 276 276 276 275 274 273 273 273 272 271 271 271 271 270 270 270 270 270 271 270 270 270